TimeCDT,TemperatureF,Dew PointF,Humidity,Sea Level PressureIn,VisibilityMPH,Wind Direction,Wind SpeedMPH,Gust SpeedMPH,PrecipitationIn,Events,Conditions,WindDirDegrees,DateUTC
12:15 AM,66.2,52.2,61,30.21,10.0,SE,4.6,-,N/A,,Clear,140,2013-08-17 05:15:00
12:35 AM,66.2,51.8,60,30.21,10.0,SSE,5.8,-,N/A,,Clear,150,2013-08-17 05:35:00
12:55 AM,65.7,51.8,61,30.21,10.0,South,5.8,-,N/A,,Clear,170,2013-08-17 05:55:00
1:15 AM,65.5,51.8,61,30.21,10.0,SSE,3.5,-,N/A,,Clear,160,2013-08-17 06:15:00
1:35 AM,64.4,52.0,64,30.21,10.0,SE,3.5,-,N/A,,Clear,130,2013-08-17 06:35:00
1:55 AM,64.4,51.4,63,30.22,10.0,Calm,Calm,-,N/A,,Clear,0,2013-08-17 06:55:00
2:15 AM,63.5,52.3,67,30.21,10.0,Calm,Calm,-,N/A,,Clear,0,2013-08-17 07:15:00
2:35 AM,64.4,52.0,64,30.21,10.0,Calm,Calm,-,N/A,,Clear,0,2013-08-17 07:35:00
2:55 AM,64.4,52.0,64,30.21,10.0,SE,3.5,-,N/A,,Clear,130,2013-08-17 07:55:00
3:15 AM,62.8,52.5,69,30.22,10.0,ESE,3.5,-,N/A,,Clear,110,2013-08-17 08:15:00
3:35 AM,61.9,53.6,74,30.22,10.0,East,3.5,-,N/A,,Clear,90,2013-08-17 08:35:00
3:55 AM,61.2,54.0,77,30.22,10.0,East,3.5,-,N/A,,Clear,90,2013-08-17 08:55:00
4:15 AM,60.8,57.2,88,30.22,10.0,East,4.6,-,N/A,,Clear,90,2013-08-17 09:15:00
4:35 AM,60.3,57.2,90,30.22,10.0,East,4.6,-,N/A,,Clear,90,2013-08-17 09:35:00
4:55 AM,59.2,57.6,94,30.22,10.0,NE,4.6,-,N/A,,Clear,40,2013-08-17 09:55:00
5:15 AM,59.2,58.1,96,30.23,10.0,NE,4.6,-,N/A,,Clear,50,2013-08-17 10:15:00
5:35 AM,58.6,58.1,98,30.23,10.0,NE,3.5,-,N/A,,Clear,50,2013-08-17 10:35:00
5:55 AM,59.0,58.1,97,30.23,10.0,NE,3.5,-,N/A,,Clear,50,2013-08-17 10:55:00
6:15 AM,58.1,57.6,98,30.24,10.0,NE,4.6,-,N/A,,Clear,50,2013-08-17 11:15:00
6:35 AM,59.0,57.9,96,30.24,10.0,ENE,4.6,-,N/A,,Clear,70,2013-08-17 11:35:00
6:55 AM,59.9,58.1,94,30.25,10.0,Calm,Calm,-,N/A,,Clear,0,2013-08-17 11:55:00
7:15 AM,59.7,58.8,97,30.25,10.0,Calm,Calm,-,N/A,,Clear,0,2013-08-17 12:15:00
7:35 AM,61.9,59.0,90,30.25,10.0,ENE,3.5,-,N/A,,Clear,70,2013-08-17 12:35:00
7:55 AM,63.0,55.4,76,30.26,10.0,Calm,Calm,-,N/A,,Clear,0,2013-08-17 12:55:00
8:15 AM,63.9,54.9,72,30.26,10.0,Calm,Calm,-,N/A,,Clear,0,2013-08-17 13:15:00
8:35 AM,66.6,55.4,67,30.26,10.0,Calm,Calm,-,N/A,,Clear,0,2013-08-17 13:35:00
8:55 AM,68.0,54.3,62,30.26,10.0,SE,3.5,-,N/A,,Clear,130,2013-08-17 13:55:00
9:15 AM,69.8,55.2,60,30.26,10.0,Calm,Calm,-,N/A,,Clear,0,2013-08-17 14:15:00
9:35 AM,70.9,54.5,56,30.26,10.0,SE,3.5,-,N/A,,Clear,130,2013-08-17 14:35:00
9:55 AM,72.5,54.1,52,30.26,10.0,SSE,3.5,-,N/A,,Clear,150,2013-08-17 14:55:00
10:15 AM,73.8,53.4,49,30.26,10.0,SSE,4.6,-,N/A,,Clear,150,2013-08-17 15:15:00
10:35 AM,75.0,53.1,46,30.26,10.0,SSE,6.9,-,N/A,,Clear,150,2013-08-17 15:35:00
10:55 AM,75.9,50.9,41,30.25,10.0,SE,5.8,-,N/A,,Clear,130,2013-08-17 15:55:00
11:15 AM,76.6,52.2,42,30.25,10.0,South,3.5,-,N/A,,Clear,190,2013-08-17 16:15:00
11:35 AM,77.0,50.5,39,30.25,10.0,East,6.9,-,N/A,,Clear,90,2013-08-17 16:35:00
11:55 AM,78.1,47.3,34,30.25,10.0,Calm,Calm,-,N/A,,Clear,0,2013-08-17 16:55:00
12:15 PM,78.4,48.9,35,30.24,10.0,East,6.9,-,N/A,,Clear,90,2013-08-17 17:15:00
12:35 PM,78.4,47.3,33,30.24,10.0,ENE,5.8,-,N/A,,Clear,60,2013-08-17 17:35:00
12:55 PM,79.2,47.7,33,30.23,10.0,ESE,6.9,-,N/A,,Clear,110,2013-08-17 17:55:00
1:15 PM,79.5,47.7,33,30.22,10.0,ENE,5.8,-,N/A,,Clear,60,2013-08-17 18:15:00
1:35 PM,79.7,46.8,31,30.22,10.0,ESE,8.1,-,N/A,,Clear,110,2013-08-17 18:35:00
1:55 PM,79.9,48.4,33,30.22,10.0,ENE,5.8,-,N/A,,Clear,70,2013-08-17 18:55:00
2:15 PM,79.5,47.3,32,30.22,10.0,Calm,Calm,-,N/A,,Clear,0,2013-08-17 19:15:00
2:35 PM,80.4,47.7,32,30.21,10.0,SSE,6.9,-,N/A,,Clear,150,2013-08-17 19:35:00
2:55 PM,80.2,47.1,31,30.21,10.0,SE,3.5,-,N/A,,Clear,130,2013-08-17 19:55:00
3:15 PM,80.8,48.9,33,30.20,10.0,Calm,Calm,-,N/A,,Clear,0,2013-08-17 20:15:00
3:35 PM,80.8,48.4,32,30.20,10.0,South,5.8,-,N/A,,Scattered Clouds,180,2013-08-17 20:35:00
3:55 PM,80.6,47.7,31,30.20,10.0,South,5.8,-,N/A,,Scattered Clouds,180,2013-08-17 20:55:00
4:15 PM,80.6,49.5,34,30.20,10.0,SSE,5.8,-,N/A,,Mostly Cloudy,160,2013-08-17 21:15:00
4:35 PM,80.4,49.1,33,30.20,10.0,ESE,4.6,-,N/A,,Mostly Cloudy,110,2013-08-17 21:35:00
4:55 PM,80.2,48.7,33,30.19,10.0,SSE,4.6,-,N/A,,Mostly Cloudy,160,2013-08-17 21:55:00
5:15 PM,79.7,48.7,34,30.19,10.0,South,4.6,-,N/A,,Scattered Clouds,170,2013-08-17 22:15:00
5:35 PM,79.7,49.3,34,30.19,10.0,Calm,Calm,-,N/A,,Scattered Clouds,0,2013-08-17 22:35:00
5:55 PM,79.3,50.0,36,30.19,10.0,SSE,3.5,-,N/A,,Clear,160,2013-08-17 22:55:00
6:15 PM,79.2,50.2,36,30.19,10.0,South,6.9,-,N/A,,Scattered Clouds,170,2013-08-17 23:15:00
6:35 PM,77.9,51.3,39,30.19,10.0,SSE,5.8,-,N/A,,Scattered Clouds,160,2013-08-17 23:35:00
6:55 PM,77.0,51.6,41,30.19,10.0,SSE,3.5,-,N/A,,Clear,160,2013-08-17 23:55:00
7:15 PM,76.3,52.5,43,30.19,10.0,South,3.5,-,N/A,,Clear,190,2013-08-18 00:15:00
7:35 PM,75.6,52.3,44,30.18,10.0,South,3.5,-,N/A,,Clear,180,2013-08-18 00:35:00
7:55 PM,74.7,52.9,46,30.18,10.0,South,3.5,-,N/A,,Clear,180,2013-08-18 00:55:00
8:15 PM,73.6,53.1,49,30.18,10.0,South,3.5,-,N/A,,Clear,180,2013-08-18 01:15:00
8:35 PM,73.4,53.2,49,30.18,10.0,South,3.5,-,N/A,,Clear,180,2013-08-18 01:35:00
8:55 PM,72.9,53.2,50,30.18,10.0,SSE,3.5,-,N/A,,Clear,160,2013-08-18 01:55:00
9:15 PM,72.7,52.9,50,30.19,10.0,SSE,3.5,-,N/A,,Clear,160,2013-08-18 02:15:00
9:35 PM,71.6,52.7,51,30.19,10.0,SSE,4.6,-,N/A,,Clear,150,2013-08-18 02:35:00
9:55 PM,67.1,53.8,62,30.19,10.0,ESE,8.1,-,N/A,,Clear,110,2013-08-18 02:55:00
10:15 PM,68.4,53.6,59,30.19,10.0,ESE,8.1,-,N/A,,Clear,120,2013-08-18 03:15:00
10:35 PM,68.0,53.2,59,30.19,10.0,ESE,6.9,-,N/A,,Clear,120,2013-08-18 03:35:00
10:55 PM,65.5,53.6,65,30.19,10.0,Calm,Calm,-,N/A,,Clear,0,2013-08-18 03:55:00
11:15 PM,65.7,53.6,65,30.19,10.0,ESE,4.6,-,N/A,,Clear,110,2013-08-18 04:15:00
11:35 PM,65.5,53.4,65,30.19,10.0,ESE,4.6,-,N/A,,Clear,120,2013-08-18 04:35:00
11:55 PM,65.3,53.1,65,30.19,10.0,ESE,4.6,-,N/A,,Clear,110,2013-08-18 04:55:00